Greensboro, NC

12:58 AM EDT on July 28, 2017 (GMT -0400)
Piedmont Triad International

Weather History for KGSO - May, 2014

Change the Weather History Date:

Saturday, May 17, 2014

  Actual Average Record
Temperature  
Mean Temperature 57 °F 67 °F  
Max Temperature 70 °F 78 °F 94 °F (1915)
Min Temperature 43 °F 56 °F 38 °F (1956)
Degree Days  
Heating Degree Days 8 2  
Month to date heating degree days 20 50  
Since 1 July heating degree days 3807 3596  
Cooling Degree Days 0 4  
Month to date cooling degree days 82 47  
Year to date cooling degree days 102 85  
Growing Degree Days 6 (Base 50)    
Moisture  
Dew Point 39 °F    
Average Humidity 55    
Maximum Humidity 76    
Minimum Humidity 34    
Precipitation  
Precipitation 0.00 in 0.10 in 1.46 in (1946)
Month to date precipitation 1.92 1.78  
Year to date precipitation 16.80 15.10  
Sea Level Pressure  
Sea Level Pressure 30.12 in    
Wind  
Wind Speed 8 mph (WNW)    
Max Wind Speed 22 mph    
Max Gust Speed 25 mph    
Visibility 10 miles    
Events      
T = Trace of Precipitation, MM = Missing Value Source: NWS Daily Summary

Daily Weather History Graph

Daily Weather History Graph

Search for Another Location

Airport or City:

Trip Planner

Search our weather history database for the weather conditions in past years. The results will help you decide how hot, cold, wet, or windy it might be!

Date:

Astronomy

May. 17, 2014 Rise Set
Actual Time 6:12 AM EDT 8:20 PM EDT
Civil Twilight 5:43 AM EDT 8:49 PM EDT
Nautical Twilight 5:08 AM EDT 9:24 PM EDT
Astronomical Twilight 4:30 AM EDT 10:02 PM EDT
Moon 11:20 PM EDT (5/17) 8:53 AM EDT (5/17)
Length of Visible Light 15h 05m
Length of Day
14h 08m
Waning Gibbous, 89% of the Moon is Illuminated
May 17
Waning Gibbous
May 21
Last Quarter
May 28
New
Jun 5
First Quarter
Jun 13
Full

Hourly Weather History & Observations

Time (EDT) Temp. Windchill Dew Point Humidity Pressure Visibility Wind Dir Wind Speed Gust Speed Precip Events Conditions
12:54 AM 51.1 °F - 37.9 °F 61% 30.07 in 10.0 mi WNW 9.2 mph - N/A   Partly Cloudy
1:54 AM 48.9 °F - 37.0 °F 64% 30.07 in 10.0 mi WNW 8.1 mph - N/A   Clear
2:54 AM 46.9 °F - 36.0 °F 66% 30.08 in 10.0 mi West 8.1 mph - N/A   Clear
3:54 AM 46.0 °F 43.1 °F 36.0 °F 68% 30.07 in 10.0 mi West 5.8 mph - N/A   Clear
4:54 AM 45.0 °F 41.2 °F 37.0 °F 74% 30.09 in 10.0 mi West 6.9 mph - N/A   Clear
5:54 AM 44.1 °F 40.1 °F 37.0 °F 76% 30.10 in 10.0 mi West 6.9 mph - N/A   Clear
6:54 AM 46.9 °F - 37.9 °F 71% 30.14 in 10.0 mi WSW 5.8 mph - N/A   Partly Cloudy
7:54 AM 51.1 °F - 37.9 °F 61% 30.14 in 10.0 mi West 8.1 mph - N/A   Partly Cloudy
8:54 AM 55.9 °F - 39.0 °F 53% 30.16 in 10.0 mi West 11.5 mph - N/A   Partly Cloudy
9:54 AM 59.0 °F - 37.9 °F 46% 30.17 in 10.0 mi West 12.7 mph 17.3 mph N/A   Partly Cloudy
10:54 AM 61.0 °F - 34.0 °F 36% 30.15 in 10.0 mi WNW 13.8 mph - N/A   Clear
11:54 AM 63.0 °F - 36.0 °F 37% 30.16 in 10.0 mi West 13.8 mph 17.3 mph N/A   Partly Cloudy
12:54 PM 64.9 °F - 37.0 °F 36% 30.14 in 10.0 mi West 10.4 mph - N/A   Mostly Cloudy
1:54 PM 66.0 °F - 37.0 °F 34% 30.14 in 10.0 mi West 15.0 mph 19.6 mph N/A   Mostly Cloudy
2:54 PM 66.9 °F - 37.9 °F 34% 30.13 in 10.0 mi WNW 10.4 mph - N/A   Mostly Cloudy
3:54 PM 66.0 °F - 39.0 °F 37% 30.12 in 10.0 mi West 8.1 mph 16.1 mph N/A   Mostly Cloudy
4:54 PM 68.0 °F - 41.0 °F 37% 30.11 in 10.0 mi SW 8.1 mph - N/A   Mostly Cloudy
5:54 PM 64.9 °F - 41.0 °F 42% 30.12 in 10.0 mi West 6.9 mph - N/A   Mostly Cloudy
6:54 PM 64.9 °F - 41.0 °F 42% 30.11 in 10.0 mi Calm Calm - N/A   Mostly Cloudy
7:54 PM 64.0 °F - 42.1 °F 45% 30.11 in 10.0 mi Calm Calm - N/A   Overcast
8:54 PM 63.0 °F - 44.1 °F 50% 30.12 in 10.0 mi Calm Calm - N/A   Overcast
9:54 PM 63.0 °F - 45.0 °F 52% 30.13 in 10.0 mi NE 3.5 mph - N/A   Mostly Cloudy
10:54 PM 60.1 °F - 43.0 °F 53% 30.16 in 10.0 mi NE 8.1 mph - N/A   Mostly Cloudy
11:54 PM 59.0 °F - 42.1 °F 53% 30.17 in 10.0 mi NNE 5.8 mph - N/A   Mostly Cloudy